Location: Newark
(25.0000°N, 73.5000°E)
Time: 16:41:30
(UTC+00:00)

Vanguard 2 Rocket - All Passes

Search period start: 26 February 2021 00:00
Search period end: 08 March 2021 00:00
Orbit: 554 x 3326 km, 32.9° (Epoch: 25 February)

Date Brightness Start Highest point End Pass type
(mag) Time Alt. Az. Time Alt. Az. Time Alt. Az.
26 Feb - 00:30:53 10° WSW 00:38:47 76° NNW 00:53:23 10° ENE visible
26 Feb - 02:44:37 10° WNW 02:56:03 63° N 03:14:47 10° E daylight
26 Feb - 04:59:21 10° WNW 05:15:08 82° NNE 05:35:55 10° ESE daylight
26 Feb - 07:15:38 10° WNW 07:34:01 60° SW 07:52:38 10° SE daylight
26 Feb - 09:37:22 10° W 09:51:02 23° SW 10:03:06 10° S daylight
26 Feb - 21:21:52 10° S 21:25:46 20° SE 21:31:05 10° E visible
26 Feb - 23:31:43 10° WSW 23:38:20 88° SSE 23:50:35 10° ENE visible
27 Feb - 01:44:47 10° W 01:54:20 61° N 02:11:04 10° ENE daylight
27 Feb - 03:58:59 10° WNW 04:12:40 72° NNE 04:32:58 10° E daylight
27 Feb - 06:14:14 10° WNW 06:31:38 73° SSW 06:51:41 10° SE daylight
27 Feb - 08:32:58 10° W 08:49:26 34° SW 09:04:48 10° SSE daylight
27 Feb - 22:32:54 10° SW 22:38:27 62° SSE 22:48:13 10° ENE visible
28 Feb - 00:45:13 10° W 00:53:09 63° N 01:07:36 10° ENE visible
28 Feb - 02:58:57 10° WNW 03:10:32 65° N 03:29:27 10° E daylight
28 Feb - 05:13:26 10° WNW 05:29:10 86° SSW 05:49:54 10° ESE daylight
28 Feb - 07:30:11 10° WNW 07:47:30 45° SW 08:05:15 10° SSE daylight
28 Feb - 09:56:31 10° WSW 10:04:31 14° SW 10:12:01 10° SSW daylight
28 Feb - 21:34:32 10° SSW 21:39:05 36° SE 21:46:09 10° ENE visible
28 Feb - 23:45:52 10° W 23:52:30 71° NNW 00:04:40 10° ENE visible
01 Mar - 01:59:11 10° WNW 02:08:51 60° N 02:25:40 10° E daylight
01 Mar - 04:13:07 10° WNW 04:26:51 82° NNE 04:47:18 10° ESE daylight
01 Mar - 06:28:29 10° WNW 06:45:18 58° SW 07:04:46 10° SE daylight
01 Mar - 08:49:18 10° W 09:02:52 23° SW 09:15:52 10° S daylight
01 Mar - 20:36:58 10° S 20:40:02 17° SE 20:43:54 10° E visible
01 Mar - 22:46:47 10° WSW 22:52:21 88° NNW 23:02:20 10° ENE visible
02 Mar - 00:59:37 10° W 01:07:37 57° N 01:22:01 10° ENE visible
02 Mar - 03:13:09 10° WNW 03:24:52 72° NNE 03:44:02 10° E daylight
02 Mar - 05:27:34 10° WNW 05:43:01 71° SSW 06:03:25 10° SE daylight
02 Mar - 07:45:24 10° W 08:01:00 33° SW 08:17:11 10° SSE daylight
02 Mar - 21:47:59 10° SW 21:52:43 62° SSE 22:00:32 10° ENE visible
03 Mar - 00:00:14 10° W 00:06:52 58° N 00:18:52 10° ENE visible
03 Mar - 02:13:28 10° WNW 02:23:17 63° NNE 02:40:21 10° E daylight
03 Mar - 04:27:12 10° WNW 04:40:51 84° SSW 05:01:14 10° ESE daylight
03 Mar - 06:43:07 10° W 06:58:56 44° SW 07:17:16 10° SSE daylight
03 Mar - 09:08:32 10° WSW 09:16:37 14° SW 09:24:34 10° SSW daylight
03 Mar - 20:49:33 10° SSW 20:53:30 33° SE 20:59:03 10° E visible
03 Mar - 23:01:00 10° W 23:06:34 65° NNW 23:16:24 10° ENE visible
04 Mar - 01:13:59 10° WNW 01:22:06 56° N 01:36:38 10° E daylight
04 Mar - 03:27:16 10° WNW 03:39:01 83° NNE 03:58:20 10° ESE daylight
04 Mar - 05:41:52 10° WNW 05:56:48 55° SSW 06:16:23 10° SE daylight
04 Mar - 08:01:51 10° W 08:14:41 22° SW 08:28:01 10° S daylight
04 Mar - 19:51:54 10° S 19:54:26 16° SE 19:57:20 10° ESE night (unlit)
04 Mar - 22:01:55 10° WSW 22:06:41 83° NNW 22:14:38 10° ENE visible
05 Mar - 00:14:39 10° WNW 00:21:20 52° N 00:33:17 10° ENE visible
05 Mar - 02:27:39 10° WNW 02:37:33 71° NNE 02:54:55 10° ESE daylight
05 Mar - 04:41:21 10° WNW 04:54:46 68° SSW 05:14:40 10° SE daylight
05 Mar - 06:58:25 10° W 07:12:39 31° SW 07:28:59 10° SSE daylight
05 Mar - 21:03:02 10° SW 21:07:13 63° SSE 21:13:25 10° ENE visible
05 Mar - 23:15:23 10° W 23:20:57 52° N 23:30:36 10° ENE visible
06 Mar - 01:28:15 10° WNW 01:36:28 60° NNE 01:51:18 10° E daylight
06 Mar - 03:41:21 10° WNW 03:53:01 82° SSW 04:12:12 10° ESE daylight
06 Mar - 05:56:34 10° W 06:10:36 41° SW 06:28:43 10° SSE daylight
06 Mar - 08:21:26 10° WSW 08:28:44 13° SW 08:36:13 10° SSW daylight
06 Mar - 20:04:27 10° SSW 20:08:02 32° SE 20:12:32 10° E night (unlit)
06 Mar - 22:16:11 10° W 22:20:55 57° NNW 22:28:41 10° ENE visible
07 Mar - 00:28:59 10° WNW 00:35:47 52° N 00:47:52 10° E visible
07 Mar - 02:41:43 10° WNW 02:51:39 84° NNE 03:09:11 10° ESE daylight
07 Mar - 04:55:42 10° WNW 05:08:40 52° SSW 05:27:30 10° SE daylight
07 Mar - 07:15:04 10° WSW 07:26:36 21° SW 07:39:31 10° S daylight
07 Mar - 19:06:30 10° S 19:08:55 16° SE 19:11:27 10° ESE night (unlit)
07 Mar - 21:17:02 10° WSW 21:21:14 75° NNW 21:27:31 10° ENE visible
07 Mar - 23:29:48 10° WNW 23:35:24 46° N 23:44:59 10° ENE visible
